Weather in Birštonas

Lithuania     54°36′20″N   24°01′47″E
temp.,
°C
wind,
m/s
gust,
m/s
humid.,
%
clouds,
%
prec.,
mm/h
press.,
hPa
HPBL,
m
12 may, wed
wed1200:00+13se414705 0.0 1017348
03:00+11se5157528 0.0 1016349
06:00+11se5138394 0.0 1016291
09:00+17se5107492 0.0 1016466
12:00+21se8106198 0.0 10151285
15:00+21se795520 0.0 10151765
18:00+19se69563 0.0 10131580
21:00+14ese411680 0.0 1013311
13 may, thu
thu1300:00+10ese38790 0.0 1012145
03:00+9ese228298 0.0 101124
06:00+9nnw2280100 0.0 100844
09:00+10nnw3888100 0.3 1006360
12:00+11n479399 1.3 1004522
15:00+14ene458073 3.1 1002785
18:00+12e348383 1.5 1001541
21:00+10se71295100 3.6 1001648
14 may, fri
fri1400:00+9se5119599 2.0 1002548
03:00+10se4894100 2.2 1001555
06:00+10ese379799 0.3 1001360
09:00+11se3595100 1.3 1002357
12:00+12sse249397 1.5 1002455
15:00+14sse358897 1.6 1003560
18:00+16se337213 0.0 1003858
21:00+12se34945 0.1 100471
15 may, sat
sat1500:00+10sse2395100 0.0 100540
03:00+10s2296100 0.0 100537
06:00+9w229780 0.0 100640
09:00+13nw338598 0.0 1006449
12:00+14nw4481100 0.0 1007658
15:00+14wnw4477100 0.1 1008699
18:00+14w3580100 0.1 1008633
21:00+12w2588100 0.1 1008142
16 may, sun
sun1600:00+11wnw2586100 0.0 1009146
03:00+8wnw249052 0.0 101090
06:00+7w119436 0.0 101117
09:00+13w117329 0.0 1011336
12:00+18s11565 0.0 10111032
15:00+20ese235070 0.0 10111802
18:00+19ese2360100 0.0 10101137
21:00+15ese3578100 0.1 101079